Retour au catalogue

STARLINK-30400

ActifCommunicationsVLEO
NORAD 57937·PAYLOAD·🇺🇸 United States

Lancé Sep 25, 2023 depuis Vandenberg Space Force Base

Loading…

Prochains Passages (prochaines 24 heures)

TLE

FraisSource: CelesTrak SupGP

Époque: Sep 15, 2026, 01:42 UTC

1 57937C 23148C   26258.07131944 -.00051440  00000+0 -15197-2 0  2589
2 57937  53.1576 221.2000 0001305  89.6989 334.0096 15.34418968    10

Suivez STARLINK-30400 en temps réel avec AllMySat

Download on the App Store